Location: Newark
(14.9900°N, 23.6600°W)
Time: 13:44:01
(UTC+00:00)

Envisat - Visible Passes

Search period start: 14 November 2019 00:00
Search period end: 24 November 2019 00:00
Orbit: 764 x 766 km, 98.1° (Epoch: 14 November)

Date Brightness Start Highest point End Pass type
(mag) Time Alt. Az. Time Alt. Az. Time Alt. Az.
14 Nov 3.8 20:14:47 10° S 20:19:42 52° W 20:24:38 10° NNW visible
15 Nov 6.6 07:02:16 10° E 07:03:41 11° E 07:05:07 10° ESE visible
15 Nov 3.0 19:38:04 10° SSE 19:43:01 56° ENE 19:47:58 10° N visible
16 Nov 5.2 20:41:04 10° SSW 20:45:12 25° W 20:49:20 10° NW visible
17 Nov 3.3 20:03:25 10° S 20:08:27 71° WSW 20:13:30 10° NNW visible
18 Nov 3.4 19:27:03 10° SE 19:31:47 41° ENE 19:36:32 10° N visible
18 Nov 6.2 21:08:48 10° WSW 21:10:43 12° W 21:12:39 10° WNW visible
19 Nov 4.7 20:29:22 10° SSW 20:33:55 34° W 20:38:29 10° NW visible
20 Nov 6.1 07:14:37 10° ENE 07:17:56 18° E 07:21:15 10° SE visible
20 Nov 2.9 19:52:07 10° SSE 19:57:12 86° ENE 20:02:16 10° N visible
21 Nov 3.7 19:16:10 10° SE 19:20:34 31° ENE 19:24:59 10° NNE visible
21 Nov 5.8 20:56:15 10° SW 20:59:25 17° W 21:02:37 10° WNW visible
22 Nov 4.1 20:17:49 10° S 20:22:39 46° W 20:27:30 10° NNW visible
23 Nov 6.4 07:04:28 10° ENE 07:06:39 13° E 07:08:50 10° SE visible
23 Nov 3.0 19:40:57 10° SSE 19:45:57 63° ENE 19:50:58 10° N visible
